星链-34100 (STARLINK-34100)

导读

STARLINK-34100是美国于2025年6月13日发射的星链卫星,归属SpaceX的星链星座网络。星链项目旨在搭建全球覆盖的低轨卫星互联网,为地面偏远区域提供高速宽带接入服务。该卫星入轨后,将助力星链系统进一步扩容,提升全球卫星通信服务的覆盖范围与运行稳定性。

Basic Information
目录编号:
64385
目录名称:
STARLINK-34100
国际标识:
2025-127R
轨道中心:
EARTH
卫星名称:
星链-34100
卫星全名:
星链-34100 (STARLINK-34100)
卫星状态:
在轨 (已飞行455 天)
发射日期:
2025-06-13 UTC
国别 :
美国 (US)
星等 :
--
This satellite is enrolled in the Space Conjunction Data Service (SCDS) and the current flight risk assessment level is: High Risk
Orbit Information
数据来源 国际轨道数据
星历时间: 2026-09-11T14:07:32+0800
11小时前
查看轨道信息
半长轴: 6861.18km
偏心率: 0.0000838
轨道倾角: 43.000°
近地点辐角 253.382°
升交点赤经 212.086°
平近点角 106.694°
近地点: 482.468km
远地点: 483.618km
周期: 94.267分钟
每日圈数: 15.275823
Detailed Information
固有亮度:
5
最大亮度:
2.5
卫星平台:
Starlink V1.0
覆盖范围:
全球
运营商:
太空探索技术公司
运营商所在国:
美国
制造商(研发单位):
太空探索技术公司
制造商所在国:
美国
使用方式:
暂无
Satellite Introduction
Starlink 计划是 SpaceX 推出的全球卫星互联网项目,通过发射低轨道卫星,为全球尤其是偏远地区提供高速、低延迟的互联网服务。自 2019 年起,Starlink 已部署数千颗卫星,旨在缩小全球数字鸿沟,推动互联网普及。该项目还为军事、航空等行业提供通信支持,带来广泛经济效益。
2D Orbit Map
3D Orbit Map
Orbit Altitude Analysis Chart
Orbit Inclination Analysis Chart
Orbit Comprehensive Analysis Chart
View Comprehensive Chart
Conjunction Data List
Event ID Objects TCA Miss Dist (km) Collision Risk Probability Collision Risk Index (CRI) Action
CDM_260913-120206-438506-653221
2026-09-13T
12:02:47+0000
0.241 km
中距离
5.236059E-4 高风险 0.89
CDM_260912-180006-438506-653221
2026-09-12T
18:00:02+0000
0.426 km
远距离
2.023771E-4 高风险 0.81
CDM_260914-035105-791506-438521
2026-09-14T
03:51:14+0000
0.522 km
远距离
1.459586E-4 高风险 0.78
CDM_260909-190105-762306-438522
2026-09-09T
19:01:51+0000
0.738 km
远距离
4.755547E-5 中风险 0.69
CDM_260910-012706-215706-438521
2026-09-10T
01:27:37+0000
0.727 km
远距离
1.639415E-5 中风险 0.59
CDM_260910-005905-791506-438522
2026-09-10T
00:59:20+0000
1.223 km
极远距离
1.016483E-5 中风险 0.55
CDM_260909-183506-438506-642721
2026-09-09T
18:35:19+0000
1.197 km
极远距离
9.114416E-6 低风险 0.54
CDM_260912-162506-438506-653221
2026-09-12T
16:25:53+0000
1.213 km
极远距离
8.881007E-6 低风险 0.54
CDM_260914-052505-791506-438521
2026-09-14T
05:25:23+0000
1.417 km
极远距离
6.159698E-6 低风险 0.51
CDM_260910-035705-936306-438522
2026-09-10T
03:57:38+0000
1.505 km
极远距离
3.694556E-6 低风险 0.46
Miss Distance Evolution Trend with All Objects
Collision Probability Evolution Trend with All Objects